User: anonymous   Login
Location: Unspecified
(0.0000°N, 0.0000°E)
Time: 07:50:54
(UTC+00:00)
Language:

MOS 1-B - Orbit

View from above orbital plane
View from above orbital plane
View from above satellite
View from above satellite

Ground track
Ground track

The orbit data is extracted from the following two-line orbital elements,

1 20478U 90013A   18112.93525497 +.00000107 +00000-0 +11251-3 0  9992
2 20478 099.3405 084.8676 0005384 350.8919 009.2143 13.95452427356732
Epoch (UTC): 22 April 2018 22:26:46
Eccentricity: 0.0005384
inclination: 99.3405°
perigee height: 905 km
apogee height: 913 km
right ascension of ascending node: 84.8676°
argument of perigee: 350.8919°
revolutions per day: 13.95452427
mean anomaly at epoch: 9.2143°
orbit number at epoch: 35673

The dashed part of the orbit path shows where the satellite is in the earth's shadow,  

DLR